Year,Month,Day,Hour,Minute,Value (Times are PST for windgust in km/hr)
2010,05,02,00,00,19.30
2010,05,02,00,01,25.70
2010,05,02,00,02,25.70
2010,05,02,00,03,22.50
2010,05,02,00,04,24.20
2010,05,02,00,05,24.20
2010,05,02,00,06,24.20
2010,05,02,00,07,20.90
2010,05,02,00,08,22.50
2010,05,02,00,09,25.70
2010,05,02,00,10,32.20
2010,05,02,00,11,20.90
2010,05,02,00,12,27.40
2010,05,02,00,13,19.30
2010,05,02,00,14,30.60
2010,05,02,00,15,25.70
2010,05,02,00,16,24.20
2010,05,02,00,17,25.70
2010,05,02,00,18,25.70
2010,05,02,00,19,25.70
2010,05,02,00,20,25.70
2010,05,02,00,21,30.60
2010,05,02,00,22,27.40
2010,05,02,00,23,33.80
2010,05,02,00,24,27.40
2010,05,02,00,25,29.00
2010,05,02,00,26,22.50
2010,05,02,00,27,29.00
2010,05,02,00,28,24.20
2010,05,02,00,29,24.20
2010,05,02,00,30,27.40
2010,05,02,00,31,29.00
2010,05,02,00,32,29.00
2010,05,02,00,33,25.70
2010,05,02,00,34,41.80
2010,05,02,00,35,37.00
2010,05,02,00,36,27.40
2010,05,02,00,37,19.30
2010,05,02,00,38,25.70
2010,05,02,00,39,33.80
2010,05,02,00,40,33.80
2010,05,02,00,41,22.50
2010,05,02,00,42,20.90
2010,05,02,00,43,19.30
2010,05,02,00,44,19.30
2010,05,02,00,45,24.20
2010,05,02,00,46,24.20
2010,05,02,00,47,20.90
2010,05,02,00,48,30.60
2010,05,02,00,49,24.20
2010,05,02,00,50,19.30
2010,05,02,00,51,20.90
2010,05,02,00,52,20.90
2010,05,02,00,53,24.20
2010,05,02,00,54,19.30
2010,05,02,00,55,27.40
2010,05,02,00,56,22.50
2010,05,02,00,57,22.50
2010,05,02,00,58,17.70
2010,05,02,00,59,19.30
2010,05,02,01,00,17.70
2010,05,02,01,01,17.70
2010,05,02,01,02,17.70
2010,05,02,01,03,19.30
2010,05,02,01,04,20.90
2010,05,02,01,05,22.50
2010,05,02,01,06,22.50
2010,05,02,01,07,20.90
2010,05,02,01,08,22.50
2010,05,02,01,09,24.20
2010,05,02,01,10,25.70
2010,05,02,01,11,22.50
2010,05,02,01,12,22.50
2010,05,02,01,13,24.20
2010,05,02,01,14,22.50
2010,05,02,01,15,27.40
2010,05,02,01,16,19.30
2010,05,02,01,17,24.20
2010,05,02,01,18,24.20
2010,05,02,01,19,25.70
2010,05,02,01,20,19.30
2010,05,02,01,21,20.90
2010,05,02,01,22,20.90
2010,05,02,01,23,24.20
2010,05,02,01,24,20.90
2010,05,02,01,25,24.20
2010,05,02,01,26,24.20
2010,05,02,01,27,24.20
2010,05,02,01,28,24.20
2010,05,02,01,29,25.70
2010,05,02,01,30,19.30
2010,05,02,01,31,27.40
2010,05,02,01,32,27.40
2010,05,02,01,33,27.40
2010,05,02,01,34,25.70
2010,05,02,01,35,27.40
2010,05,02,01,36,19.30
2010,05,02,01,37,20.90
2010,05,02,01,38,19.30
2010,05,02,01,39,19.30
2010,05,02,01,40,27.40
2010,05,02,01,41,24.20
2010,05,02,01,42,19.30
2010,05,02,01,43,20.90
2010,05,02,01,44,20.90
2010,05,02,01,45,22.50
2010,05,02,01,46,24.20
2010,05,02,01,47,19.30
2010,05,02,01,48,29.00
2010,05,02,01,49,22.50
2010,05,02,01,50,19.30
2010,05,02,01,51,22.50
2010,05,02,01,52,25.70
2010,05,02,01,53,19.30
2010,05,02,01,54,17.70
2010,05,02,01,55,16.10
2010,05,02,01,56,22.50
2010,05,02,01,57,20.90
2010,05,02,01,58,19.30
2010,05,02,01,59,24.20
2010,05,02,02,00,22.50
2010,05,02,02,01,24.20
2010,05,02,02,02,22.50
2010,05,02,02,03,19.30
2010,05,02,02,04,22.50
2010,05,02,02,05,20.90
2010,05,02,02,06,20.90
2010,05,02,02,07,17.70
2010,05,02,02,08,20.90
2010,05,02,02,09,22.50
2010,05,02,02,10,22.50
2010,05,02,02,11,24.20
2010,05,02,02,12,25.70
2010,05,02,02,13,19.30
2010,05,02,02,14,25.70
2010,05,02,02,15,29.00
2010,05,02,02,16,24.20
2010,05,02,02,17,17.70
2010,05,02,02,18,19.30
2010,05,02,02,19,22.50
2010,05,02,02,20,19.30
2010,05,02,02,21,25.70
2010,05,02,02,22,24.20
2010,05,02,02,23,22.50
2010,05,02,02,24,22.50
2010,05,02,02,25,25.70
2010,05,02,02,26,22.50
2010,05,02,02,27,22.50
2010,05,02,02,28,22.50
2010,05,02,02,29,20.90
2010,05,02,02,30,22.50
2010,05,02,02,31,20.90
2010,05,02,02,32,24.20
2010,05,02,02,33,25.70
2010,05,02,02,34,20.90
2010,05,02,02,35,25.70
2010,05,02,02,36,27.40
2010,05,02,02,37,22.50
2010,05,02,02,38,22.50
2010,05,02,02,39,24.20
2010,05,02,02,40,25.70
2010,05,02,02,41,20.90
2010,05,02,02,42,24.20
2010,05,02,02,43,22.50
2010,05,02,02,44,24.20
2010,05,02,02,45,24.20
2010,05,02,02,46,25.70
2010,05,02,02,47,24.20
2010,05,02,02,48,24.20
2010,05,02,02,49,24.20
2010,05,02,02,50,24.20
2010,05,02,02,51,29.00
2010,05,02,02,52,27.40
2010,05,02,02,53,20.90
2010,05,02,02,54,19.30
2010,05,02,02,55,20.90
2010,05,02,02,56,20.90
2010,05,02,02,57,19.30
2010,05,02,02,58,20.90
2010,05,02,02,59,16.10
2010,05,02,03,00,22.50
2010,05,02,03,01,17.70
2010,05,02,03,02,20.90
2010,05,02,03,03,22.50
2010,05,02,03,04,17.70
2010,05,02,03,05,17.70
2010,05,02,03,06,16.10
2010,05,02,03,07,19.30
2010,05,02,03,08,19.30
2010,05,02,03,09,22.50
2010,05,02,03,10,19.30
2010,05,02,03,11,17.70
2010,05,02,03,12,22.50
2010,05,02,03,13,16.10
2010,05,02,03,14,12.90
2010,05,02,03,15,20.90
2010,05,02,03,16,17.70
2010,05,02,03,17,22.50
2010,05,02,03,18,20.90
2010,05,02,03,19,19.30
2010,05,02,03,20,16.10
2010,05,02,03,21,19.30
2010,05,02,03,22,17.70
2010,05,02,03,23,20.90
2010,05,02,03,24,22.50
2010,05,02,03,25,20.90
2010,05,02,03,26,19.30
2010,05,02,03,27,17.70
2010,05,02,03,28,24.20
2010,05,02,03,29,24.20
2010,05,02,03,30,20.90
2010,05,02,03,31,22.50
2010,05,02,03,32,22.50
2010,05,02,03,33,20.90
2010,05,02,03,34,17.70
2010,05,02,03,35,22.50
2010,05,02,03,36,16.10
2010,05,02,03,37,22.50
2010,05,02,03,38,20.90
2010,05,02,03,39,11.30
2010,05,02,03,40,16.10
2010,05,02,03,41,20.90
2010,05,02,03,42,20.90
2010,05,02,03,43,17.70
2010,05,02,03,44,20.90
2010,05,02,03,45,17.70
2010,05,02,03,46,19.30
2010,05,02,03,47,19.30
2010,05,02,03,48,20.90
2010,05,02,03,49,20.90
2010,05,02,03,50,20.90
2010,05,02,03,51,20.90
2010,05,02,03,52,16.10
2010,05,02,03,53,17.70
2010,05,02,03,54,17.70
2010,05,02,03,55,22.50
2010,05,02,03,56,19.30
2010,05,02,03,57,16.10
2010,05,02,03,58,16.10
2010,05,02,03,59,14.50
2010,05,02,04,00,17.70
2010,05,02,04,01,14.50
2010,05,02,04,02,20.90
2010,05,02,04,03,30.60
2010,05,02,04,04,24.20
2010,05,02,04,05,17.70
2010,05,02,04,06,19.30
2010,05,02,04,07,16.10
2010,05,02,04,08,22.50
2010,05,02,04,09,24.20
2010,05,02,04,10,24.20
2010,05,02,04,11,17.70
2010,05,02,04,12,17.70
2010,05,02,04,13,24.20
2010,05,02,04,14,24.20
2010,05,02,04,15,19.30
2010,05,02,04,16,20.90
2010,05,02,04,17,24.20
2010,05,02,04,18,22.50
2010,05,02,04,19,22.50
2010,05,02,04,20,22.50
2010,05,02,04,21,20.90
2010,05,02,04,22,25.70
2010,05,02,04,23,27.40
2010,05,02,04,24,20.90
2010,05,02,04,25,24.20
2010,05,02,04,26,20.90
2010,05,02,04,27,22.50
2010,05,02,04,28,20.90
2010,05,02,04,29,20.90
2010,05,02,04,30,24.20
2010,05,02,04,31,27.40
2010,05,02,04,32,25.70
2010,05,02,04,33,27.40
2010,05,02,04,34,25.70
2010,05,02,04,35,19.30
2010,05,02,04,36,27.40
2010,05,02,04,37,27.40
2010,05,02,04,38,27.40
2010,05,02,04,39,22.50
2010,05,02,04,40,17.70
2010,05,02,04,41,24.20
2010,05,02,04,42,29.00
2010,05,02,04,43,29.00
2010,05,02,04,44,25.70
2010,05,02,04,45,27.40
2010,05,02,04,46,27.40
2010,05,02,04,47,24.20
2010,05,02,04,48,25.70
2010,05,02,04,49,19.30
2010,05,02,04,50,19.30
2010,05,02,04,51,20.90
2010,05,02,04,52,24.20
2010,05,02,04,53,19.30
2010,05,02,04,54,24.20
2010,05,02,04,55,20.90
2010,05,02,04,56,11.30
2010,05,02,04,57,17.70
2010,05,02,04,58,22.50
2010,05,02,04,59,27.40
2010,05,02,05,00,27.40
2010,05,02,05,01,19.30
2010,05,02,05,02,19.30
2010,05,02,05,03,19.30
2010,05,02,05,04,20.90
2010,05,02,05,05,29.00
2010,05,02,05,06,27.40
2010,05,02,05,07,29.00
2010,05,02,05,08,24.20
2010,05,02,05,09,20.90
2010,05,02,05,10,22.50
2010,05,02,05,11,20.90
2010,05,02,05,12,20.90
2010,05,02,05,13,24.20
2010,05,02,05,14,20.90
2010,05,02,05,15,27.40
2010,05,02,05,16,25.70
2010,05,02,05,17,22.50
2010,05,02,05,18,24.20
2010,05,02,05,19,24.20
2010,05,02,05,20,19.30
2010,05,02,05,21,19.30
2010,05,02,05,22,24.20
2010,05,02,05,23,19.30
2010,05,02,05,24,17.70
2010,05,02,05,25,22.50
2010,05,02,05,26,25.70
2010,05,02,05,27,12.90
2010,05,02,05,28,22.50
2010,05,02,05,29,20.90
2010,05,02,05,30,24.20
2010,05,02,05,31,16.10
2010,05,02,05,32,20.90
2010,05,02,05,33,29.00
2010,05,02,05,34,25.70
2010,05,02,05,35,20.90
2010,05,02,05,36,22.50
2010,05,02,05,37,24.20
2010,05,02,05,38,19.30
2010,05,02,05,39,22.50
2010,05,02,05,40,11.30
2010,05,02,05,41,16.10
2010,05,02,05,42,25.70
2010,05,02,05,43,24.20
2010,05,02,05,44,17.70
2010,05,02,05,45,22.50
2010,05,02,05,46,20.90
2010,05,02,05,47,22.50
2010,05,02,05,48,20.90
2010,05,02,05,49,20.90
2010,05,02,05,50,20.90
2010,05,02,05,51,27.40
2010,05,02,05,52,29.00
2010,05,02,05,53,17.70
2010,05,02,05,54,22.50
2010,05,02,05,55,19.30
2010,05,02,05,56,19.30
2010,05,02,05,57,20.90
2010,05,02,05,58,19.30
2010,05,02,05,59,16.10
2010,05,02,06,00,20.90
2010,05,02,06,01,20.90
2010,05,02,06,02,29.00
2010,05,02,06,03,25.70
2010,05,02,06,04,22.50
2010,05,02,06,05,24.20
2010,05,02,06,06,24.20
2010,05,02,06,07,20.90
2010,05,02,06,08,20.90
2010,05,02,06,09,27.40
2010,05,02,06,10,25.70
2010,05,02,06,11,17.70
2010,05,02,06,12,17.70
2010,05,02,06,13,25.70
2010,05,02,06,14,29.00
2010,05,02,06,15,24.20
2010,05,02,06,16,17.70
2010,05,02,06,17,20.90
2010,05,02,06,18,29.00
2010,05,02,06,19,25.70
2010,05,02,06,20,22.50
2010,05,02,06,21,27.40
2010,05,02,06,22,22.50
2010,05,02,06,23,20.90
2010,05,02,06,24,17.70
2010,05,02,06,25,20.90
2010,05,02,06,26,27.40
2010,05,02,06,27,24.20
2010,05,02,06,28,25.70
2010,05,02,06,29,24.20
2010,05,02,06,30,19.30
2010,05,02,06,31,17.70
2010,05,02,06,32,16.10
2010,05,02,06,33,20.90
2010,05,02,06,34,19.30
2010,05,02,06,35,22.50
2010,05,02,06,36,17.70
2010,05,02,06,37,22.50
2010,05,02,06,38,16.10
2010,05,02,06,39,17.70
2010,05,02,06,40,19.30
2010,05,02,06,41,19.30
2010,05,02,06,42,17.70
2010,05,02,06,43,19.30
2010,05,02,06,44,20.90
2010,05,02,06,45,12.90
2010,05,02,06,46,22.50
2010,05,02,06,47,20.90
2010,05,02,06,48,24.20
2010,05,02,06,49,22.50
2010,05,02,06,50,29.00
2010,05,02,06,51,20.90
2010,05,02,06,52,17.70
2010,05,02,06,53,25.70
2010,05,02,06,54,22.50
2010,05,02,06,55,20.90
2010,05,02,06,56,16.10
2010,05,02,06,57,17.70
2010,05,02,06,58,25.70
2010,05,02,06,59,22.50
2010,05,02,07,00,25.70
2010,05,02,07,01,24.20
2010,05,02,07,02,19.30
2010,05,02,07,03,19.30
2010,05,02,07,04,19.30
2010,05,02,07,05,16.10
2010,05,02,07,06,19.30
2010,05,02,07,07,22.50
2010,05,02,07,08,17.70
2010,05,02,07,09,8.10
2010,05,02,07,10,17.70
2010,05,02,07,11,20.90
2010,05,02,07,12,19.30
2010,05,02,07,13,19.30
2010,05,02,07,14,16.10
2010,05,02,07,15,22.50
2010,05,02,07,16,16.10
2010,05,02,07,17,19.30
2010,05,02,07,18,19.30
2010,05,02,07,19,19.30
2010,05,02,07,20,16.10
2010,05,02,07,21,17.70
2010,05,02,07,22,22.50
2010,05,02,07,23,24.20
2010,05,02,07,24,17.70
2010,05,02,07,25,24.20
2010,05,02,07,26,17.70
2010,05,02,07,27,19.30
2010,05,02,07,28,20.90
2010,05,02,07,29,24.20
2010,05,02,07,30,25.70
2010,05,02,07,31,20.90
2010,05,02,07,32,22.50
2010,05,02,07,33,27.40
2010,05,02,07,34,24.20
2010,05,02,07,35,27.40
2010,05,02,07,36,22.50
2010,05,02,07,37,22.50
2010,05,02,07,38,14.50
2010,05,02,07,39,14.50
2010,05,02,07,40,16.10
2010,05,02,07,41,24.20
2010,05,02,07,42,19.30
2010,05,02,07,43,14.50
2010,05,02,07,44,16.10
2010,05,02,07,45,19.30
2010,05,02,07,46,19.30
2010,05,02,07,47,11.30
2010,05,02,07,48,20.90
2010,05,02,07,49,19.30
2010,05,02,07,50,22.50
2010,05,02,07,51,22.50
2010,05,02,07,52,17.70
2010,05,02,07,53,17.70
2010,05,02,07,54,19.30
2010,05,02,07,55,16.10
2010,05,02,07,56,17.70
2010,05,02,07,57,17.70
2010,05,02,07,58,12.90
2010,05,02,07,59,20.90
2010,05,02,08,00,19.30
2010,05,02,08,01,17.70
2010,05,02,08,02,17.70
2010,05,02,08,03,12.90
2010,05,02,08,04,17.70
2010,05,02,08,05,17.70
2010,05,02,08,06,16.10
2010,05,02,08,07,27.40
2010,05,02,08,08,19.30
2010,05,02,08,09,29.00
2010,05,02,08,10,19.30
2010,05,02,08,11,25.70
2010,05,02,08,12,19.30
2010,05,02,08,13,14.50
2010,05,02,08,14,20.90
2010,05,02,08,15,19.30
2010,05,02,08,16,14.50
2010,05,02,08,17,16.10
2010,05,02,08,18,16.10
2010,05,02,08,19,27.40
2010,05,02,08,20,25.70
2010,05,02,08,21,22.50
2010,05,02,08,22,22.50
2010,05,02,08,23,30.60
2010,05,02,08,24,20.90
2010,05,02,08,25,24.20
2010,05,02,08,26,27.40
2010,05,02,08,27,22.50
2010,05,02,08,28,17.70
2010,05,02,08,29,22.50
2010,05,02,08,30,11.30
2010,05,02,08,31,19.30
2010,05,02,08,32,17.70
2010,05,02,08,33,24.20
2010,05,02,08,34,32.20
2010,05,02,08,35,22.50
2010,05,02,08,36,20.90
2010,05,02,08,37,20.90
2010,05,02,08,38,19.30
2010,05,02,08,39,20.90
2010,05,02,08,40,22.50
2010,05,02,08,41,24.20
2010,05,02,08,42,24.20
2010,05,02,08,43,20.90
2010,05,02,08,44,19.30
2010,05,02,08,45,29.00
2010,05,02,08,46,22.50
2010,05,02,08,47,20.90
2010,05,02,08,48,14.50
2010,05,02,08,49,17.70
2010,05,02,08,50,22.50
2010,05,02,08,51,20.90
2010,05,02,08,52,14.50
2010,05,02,08,53,19.30
2010,05,02,08,54,19.30
2010,05,02,08,55,14.50
2010,05,02,08,56,19.30
2010,05,02,08,57,20.90
2010,05,02,08,58,20.90
2010,05,02,08,59,14.50
2010,05,02,09,00,16.10
2010,05,02,09,01,25.70
2010,05,02,09,02,22.50
2010,05,02,09,03,17.70
2010,05,02,09,04,14.50
2010,05,02,09,05,16.10
2010,05,02,09,06,17.70
2010,05,02,09,07,20.90
2010,05,02,09,08,19.30
2010,05,02,09,09,19.30
2010,05,02,09,10,20.90
2010,05,02,09,11,9.60
2010,05,02,09,12,17.70
2010,05,02,09,13,16.10
2010,05,02,09,14,14.50
2010,05,02,09,15,16.10
2010,05,02,09,16,19.30
2010,05,02,09,17,17.70
2010,05,02,09,18,11.30
2010,05,02,09,19,9.60
2010,05,02,09,20,20.90
2010,05,02,09,21,17.70
2010,05,02,09,22,9.60
2010,05,02,09,23,16.10
2010,05,02,09,24,24.20
2010,05,02,09,25,12.90
2010,05,02,09,26,22.50
2010,05,02,09,27,19.30
2010,05,02,09,28,9.60
2010,05,02,09,29,19.30
2010,05,02,09,30,20.90
2010,05,02,09,31,20.90
2010,05,02,09,32,27.40
2010,05,02,09,33,22.50
2010,05,02,09,34,27.40
2010,05,02,09,35,20.90
2010,05,02,09,36,17.70
2010,05,02,09,37,19.30
2010,05,02,09,38,22.50
2010,05,02,09,39,17.70
2010,05,02,09,40,17.70
2010,05,02,09,41,19.30
2010,05,02,09,42,14.50
2010,05,02,09,43,8.10
2010,05,02,09,44,20.90
2010,05,02,09,45,16.10
2010,05,02,09,46,20.90
2010,05,02,09,47,16.10
2010,05,02,09,48,16.10
2010,05,02,09,49,19.30
2010,05,02,09,50,20.90
2010,05,02,09,51,14.50
2010,05,02,09,52,19.30
2010,05,02,09,53,22.50
2010,05,02,09,54,16.10
2010,05,02,09,55,24.20
2010,05,02,09,56,17.70
2010,05,02,09,57,19.30
2010,05,02,09,58,20.90
2010,05,02,09,59,17.70
2010,05,02,10,00,14.50
2010,05,02,10,01,20.90
2010,05,02,10,02,17.70
2010,05,02,10,03,16.10
2010,05,02,10,04,24.20
2010,05,02,10,05,17.70
2010,05,02,10,06,12.90
2010,05,02,10,07,9.60
2010,05,02,10,08,11.30
2010,05,02,10,09,22.50
2010,05,02,10,10,14.50
2010,05,02,10,11,12.90
2010,05,02,10,12,8.10
2010,05,02,10,13,17.70
2010,05,02,10,14,16.10
2010,05,02,10,15,6.40
2010,05,02,10,16,19.30
2010,05,02,10,17,19.30
2010,05,02,10,18,20.90
2010,05,02,10,19,19.30
2010,05,02,10,20,17.70
2010,05,02,10,21,20.90
2010,05,02,10,22,12.90
2010,05,02,10,23,9.60
2010,05,02,10,24,12.90
2010,05,02,10,25,16.10
2010,05,02,10,26,14.50
2010,05,02,10,27,9.60
2010,05,02,10,28,8.10
2010,05,02,10,29,9.60
2010,05,02,10,30,16.10
2010,05,02,10,31,20.90
2010,05,02,10,32,22.50
2010,05,02,10,33,22.50
2010,05,02,10,34,22.50
2010,05,02,10,35,20.90
2010,05,02,10,36,22.50
2010,05,02,10,37,17.70
2010,05,02,10,38,22.50
2010,05,02,10,39,17.70
2010,05,02,10,40,20.90
2010,05,02,10,41,20.90
2010,05,02,10,42,19.30
2010,05,02,10,43,27.40
2010,05,02,10,44,25.70
2010,05,02,10,45,20.90
2010,05,02,10,46,22.50
2010,05,02,10,47,16.10
2010,05,02,10,48,25.70
2010,05,02,10,49,20.90
2010,05,02,10,50,16.10
2010,05,02,10,51,19.30
2010,05,02,10,52,24.20
2010,05,02,10,53,30.60
2010,05,02,10,54,27.40
2010,05,02,10,55,32.20
2010,05,02,10,56,24.20
2010,05,02,10,57,27.40
2010,05,02,10,58,25.70
2010,05,02,10,59,20.90
2010,05,02,11,00,27.40
2010,05,02,11,01,30.60
2010,05,02,11,02,29.00
2010,05,02,11,03,24.20
2010,05,02,11,04,24.20
2010,05,02,11,05,19.30
2010,05,02,11,06,24.20
2010,05,02,11,07,33.80
2010,05,02,11,08,25.70
2010,05,02,11,09,20.90
2010,05,02,11,10,20.90
2010,05,02,11,11,24.20
2010,05,02,11,12,22.50
2010,05,02,11,13,27.40
2010,05,02,11,14,30.60
2010,05,02,11,15,32.20
2010,05,02,11,16,24.20
2010,05,02,11,17,25.70
2010,05,02,11,18,24.20
2010,05,02,11,19,24.20
2010,05,02,11,20,19.30
2010,05,02,11,21,29.00
2010,05,02,11,22,27.40
2010,05,02,11,23,29.00
2010,05,02,11,24,25.70
2010,05,02,11,25,19.30
2010,05,02,11,26,22.50
2010,05,02,11,27,19.30
2010,05,02,11,28,20.90
2010,05,02,11,29,14.50
2010,05,02,11,30,16.10
2010,05,02,11,31,19.30
2010,05,02,11,32,14.50
2010,05,02,11,33,16.10
2010,05,02,11,34,20.90
2010,05,02,11,35,14.50
2010,05,02,11,36,16.10
2010,05,02,11,37,20.90
2010,05,02,11,38,19.30
2010,05,02,11,39,19.30
2010,05,02,11,40,20.90
2010,05,02,11,41,17.70
2010,05,02,11,42,22.50
2010,05,02,11,43,24.20
2010,05,02,11,44,22.50
2010,05,02,11,45,9.60
2010,05,02,11,46,19.30
2010,05,02,11,47,29.00
2010,05,02,11,48,24.20
2010,05,02,11,49,17.70
2010,05,02,11,50,19.30
2010,05,02,11,51,16.10
2010,05,02,11,52,12.90
2010,05,02,11,53,16.10
2010,05,02,11,54,16.10
2010,05,02,11,55,19.30
2010,05,02,11,56,8.10
2010,05,02,11,57,24.20
2010,05,02,11,58,27.40
2010,05,02,11,59,22.50
2010,05,02,12,00,14.50
2010,05,02,12,01,16.10
2010,05,02,12,02,27.40
2010,05,02,12,03,22.50
2010,05,02,12,04,24.20
2010,05,02,12,05,17.70
2010,05,02,12,06,25.70
2010,05,02,12,07,27.40
2010,05,02,12,08,25.70
2010,05,02,12,09,25.70
2010,05,02,12,10,20.90
2010,05,02,12,11,17.70
2010,05,02,12,12,19.30
2010,05,02,12,13,17.70
2010,05,02,12,14,19.30
2010,05,02,12,15,22.50
2010,05,02,12,16,14.50
2010,05,02,12,17,20.90
2010,05,02,12,18,19.30
2010,05,02,12,19,19.30
2010,05,02,12,20,17.70
2010,05,02,12,21,22.50
2010,05,02,12,22,27.40
2010,05,02,12,23,17.70
2010,05,02,12,24,17.70
2010,05,02,12,25,20.90
2010,05,02,12,26,20.90
2010,05,02,12,27,14.50
2010,05,02,12,28,27.40
2010,05,02,12,29,11.30
2010,05,02,12,30,17.70
2010,05,02,12,31,16.10
2010,05,02,12,32,22.50
2010,05,02,12,33,20.90
2010,05,02,12,34,25.70
2010,05,02,12,35,25.70
2010,05,02,12,36,17.70
2010,05,02,12,37,19.30
2010,05,02,12,38,14.50
2010,05,02,12,39,16.10
2010,05,02,12,40,11.30
2010,05,02,12,41,19.30
2010,05,02,12,42,16.10
2010,05,02,12,43,19.30
2010,05,02,12,44,17.70
2010,05,02,12,45,17.70
2010,05,02,12,46,11.30
2010,05,02,12,47,12.90
2010,05,02,12,48,14.50
2010,05,02,12,49,22.50
2010,05,02,12,50,20.90
2010,05,02,12,51,17.70
2010,05,02,12,52,22.50
2010,05,02,12,53,24.20
2010,05,02,12,54,16.10
2010,05,02,12,55,27.40
2010,05,02,12,56,20.90
2010,05,02,12,57,19.30
2010,05,02,12,58,17.70
2010,05,02,12,59,24.20
2010,05,02,13,00,19.30
2010,05,02,13,01,19.30
2010,05,02,13,02,19.30
2010,05,02,13,03,17.70
2010,05,02,13,04,24.20
2010,05,02,13,05,20.90
2010,05,02,13,06,16.10
2010,05,02,13,07,24.20
2010,05,02,13,08,9.60
2010,05,02,13,09,16.10
2010,05,02,13,10,14.50
2010,05,02,13,11,17.70
2010,05,02,13,12,20.90
2010,05,02,13,13,19.30
2010,05,02,13,14,11.30
2010,05,02,13,15,14.50
2010,05,02,13,16,14.50
2010,05,02,13,17,16.10
2010,05,02,13,18,17.70
2010,05,02,13,19,14.50
2010,05,02,13,20,17.70
2010,05,02,13,21,14.50
2010,05,02,13,22,14.50
2010,05,02,13,23,17.70
2010,05,02,13,24,16.10
2010,05,02,13,25,24.20
2010,05,02,13,26,24.20
2010,05,02,13,27,24.20
2010,05,02,13,28,20.90
2010,05,02,13,29,22.50
2010,05,02,13,30,22.50
2010,05,02,13,31,20.90
2010,05,02,13,32,16.10
2010,05,02,13,33,17.70
2010,05,02,13,34,12.90
2010,05,02,13,35,16.10
2010,05,02,13,36,16.10
2010,05,02,13,37,19.30
2010,05,02,13,38,14.50
2010,05,02,13,39,16.10
2010,05,02,13,40,24.20
2010,05,02,13,41,20.90
2010,05,02,13,42,14.50
2010,05,02,13,43,14.50
2010,05,02,13,44,19.30
2010,05,02,13,45,22.50
2010,05,02,13,46,19.30
2010,05,02,13,47,16.10
2010,05,02,13,48,16.10
2010,05,02,13,49,16.10
2010,05,02,13,50,6.40
2010,05,02,13,51,14.50
2010,05,02,13,52,9.60
2010,05,02,13,53,14.50
2010,05,02,13,54,14.50
2010,05,02,13,55,14.50
2010,05,02,13,56,11.30
2010,05,02,13,57,19.30
2010,05,02,13,58,14.50
2010,05,02,13,59,17.70
2010,05,02,14,00,11.30
2010,05,02,14,01,14.50
2010,05,02,14,02,16.10
2010,05,02,14,03,14.50
2010,05,02,14,04,17.70
2010,05,02,14,05,22.50
2010,05,02,14,06,16.10
2010,05,02,14,07,19.30
2010,05,02,14,08,20.90
2010,05,02,14,09,17.70
2010,05,02,14,10,14.50
2010,05,02,14,11,22.50
2010,05,02,14,12,22.50
2010,05,02,14,13,19.30
2010,05,02,14,14,8.10
2010,05,02,14,15,14.50
2010,05,02,14,16,16.10
2010,05,02,14,17,22.50
2010,05,02,14,18,12.90
2010,05,02,14,19,14.50
2010,05,02,14,20,19.30
2010,05,02,14,21,16.10
2010,05,02,14,22,16.10
2010,05,02,14,23,16.10
2010,05,02,14,24,11.30
2010,05,02,14,25,12.90
2010,05,02,14,26,12.90
2010,05,02,14,27,8.10
2010,05,02,14,28,14.50
2010,05,02,14,29,14.50
2010,05,02,14,30,14.50
2010,05,02,14,31,16.10
2010,05,02,14,32,22.50
2010,05,02,14,33,17.70
2010,05,02,14,34,8.10
2010,05,02,14,35,17.70
2010,05,02,14,36,9.60
2010,05,02,14,37,14.50
2010,05,02,14,38,9.60
2010,05,02,14,39,20.90
2010,05,02,14,40,14.50
2010,05,02,14,41,9.60
2010,05,02,14,42,14.50
2010,05,02,14,43,9.60
2010,05,02,14,44,9.60
2010,05,02,14,45,9.60
2010,05,02,14,46,17.70
2010,05,02,14,47,8.10
2010,05,02,14,48,19.30
2010,05,02,14,49,14.50
2010,05,02,14,50,16.10
2010,05,02,14,51,9.60
2010,05,02,14,52,11.30
2010,05,02,14,53,6.40
2010,05,02,14,54,12.90
2010,05,02,14,55,17.70
2010,05,02,14,56,17.70
2010,05,02,14,57,16.10
2010,05,02,14,58,16.10
2010,05,02,14,59,16.10
2010,05,02,15,00,14.50
2010,05,02,15,01,8.10
2010,05,02,15,02,8.10
2010,05,02,15,03,17.70
2010,05,02,15,04,17.70
2010,05,02,15,05,16.10
2010,05,02,15,06,14.50
2010,05,02,15,07,14.50
2010,05,02,15,08,8.10
2010,05,02,15,09,3.20
2010,05,02,15,10,8.10
2010,05,02,15,11,9.60
2010,05,02,15,12,11.30
2010,05,02,15,13,8.10
2010,05,02,15,14,6.40
2010,05,02,15,15,8.10
2010,05,02,15,16,9.60
2010,05,02,15,17,9.60
2010,05,02,15,18,9.60
2010,05,02,15,19,11.30
2010,05,02,15,20,11.30
2010,05,02,15,21,9.60
2010,05,02,15,22,6.40
2010,05,02,15,23,8.10
2010,05,02,15,24,16.10
2010,05,02,15,25,6.40
2010,05,02,15,26,3.20
2010,05,02,15,27,4.80
2010,05,02,15,28,9.60
2010,05,02,15,29,11.30
2010,05,02,15,30,16.10
2010,05,02,15,31,8.10
2010,05,02,15,32,6.40
2010,05,02,15,33,11.30
2010,05,02,15,34,9.60
2010,05,02,15,35,9.60
2010,05,02,15,36,19.30
2010,05,02,15,37,11.30
2010,05,02,15,38,12.90
2010,05,02,15,39,3.20
2010,05,02,15,40,14.50
2010,05,02,15,41,16.10
2010,05,02,15,42,12.90
2010,05,02,15,43,8.10
2010,05,02,15,44,9.60
2010,05,02,15,45,8.10
2010,05,02,15,46,19.30
2010,05,02,15,47,14.50
2010,05,02,15,48,6.40
2010,05,02,15,49,14.50
2010,05,02,15,50,12.90
2010,05,02,15,51,11.30
2010,05,02,15,52,6.40
2010,05,02,15,53,8.10
2010,05,02,15,54,11.30
2010,05,02,15,55,16.10
2010,05,02,15,56,16.10
2010,05,02,15,57,16.10
2010,05,02,15,58,14.50
2010,05,02,15,59,11.30
2010,05,02,16,00,6.40
2010,05,02,16,01,11.30
2010,05,02,16,02,11.30
2010,05,02,16,03,8.10
2010,05,02,16,04,11.30
2010,05,02,16,05,9.60
2010,05,02,16,06,17.70
2010,05,02,16,07,11.30
2010,05,02,16,08,9.60
2010,05,02,16,09,8.10
2010,05,02,16,10,8.10
2010,05,02,16,11,9.60
2010,05,02,16,12,4.80
2010,05,02,16,13,4.80
2010,05,02,16,14,8.10
2010,05,02,16,15,9.60
2010,05,02,16,16,9.60
2010,05,02,16,17,8.10
2010,05,02,16,18,9.60
2010,05,02,16,19,6.40
2010,05,02,16,20,3.20
2010,05,02,16,21,6.40
2010,05,02,16,22,3.20
2010,05,02,16,23,8.10
2010,05,02,16,24,8.10
2010,05,02,16,25,9.60
2010,05,02,16,26,8.10
2010,05,02,16,27,4.80
2010,05,02,16,28,3.20
2010,05,02,16,29,8.10
2010,05,02,16,30,9.60
2010,05,02,16,31,9.60
2010,05,02,16,32,11.30
2010,05,02,16,33,8.10
2010,05,02,16,34,12.90
2010,05,02,16,35,9.60
2010,05,02,16,36,8.10
2010,05,02,16,37,4.80
2010,05,02,16,38,11.30
2010,05,02,16,39,8.10
2010,05,02,16,40,8.10
2010,05,02,16,41,9.60
2010,05,02,16,42,8.10
2010,05,02,16,43,9.60
2010,05,02,16,44,9.60
2010,05,02,16,45,8.10
2010,05,02,16,46,8.10
2010,05,02,16,47,14.50
2010,05,02,16,48,6.40
2010,05,02,16,49,11.30
2010,05,02,16,50,16.10
2010,05,02,16,51,11.30
2010,05,02,16,52,8.10
2010,05,02,16,53,9.60
2010,05,02,16,54,11.30
2010,05,02,16,55,4.80
2010,05,02,16,56,11.30
2010,05,02,16,57,9.60
2010,05,02,16,58,6.40
2010,05,02,16,59,6.40
2010,05,02,17,00,6.40
2010,05,02,17,01,6.40
2010,05,02,17,02,8.10
2010,05,02,17,03,8.10
2010,05,02,17,04,6.40
2010,05,02,17,05,6.40
2010,05,02,17,06,6.40
2010,05,02,17,07,1.60
2010,05,02,17,09,1.60
2010,05,02,17,10,6.40
2010,05,02,17,11,8.10
2010,05,02,17,12,3.20
2010,05,02,17,13,8.10
2010,05,02,17,14,4.80
2010,05,02,17,15,6.40
2010,05,02,17,16,4.80
2010,05,02,17,17,4.80
2010,05,02,17,18,6.40
2010,05,02,17,19,6.40
2010,05,02,17,20,1.60
2010,05,02,17,21,6.40
2010,05,02,17,22,6.40
2010,05,02,17,23,6.40
2010,05,02,17,24,3.20
2010,05,02,17,25,6.40
2010,05,02,17,26,8.10